Weather WX

World > North America > United States > North Dakota

Jamestown, North Dakota Regional Weather

Lat: 46.91N, Lon: 98.71W
Wx Zone: NDZ037
Warning FLW WEATHER ALERT - (More Info. Click Here) Warning
Feedback

Jamestown, ND Regional Weather

Expires:201907180700;;236687
ASUS43 KBIS 180610
RWRND 

NORTH DAKOTA REGIONAL WEATHER ROUNDUP
NATIONAL WEATHER SERVICE BISMARCK ND
100 AM CDT THU JUL 18 2019

NOTE: "FAIR" INDICATES FEW OR NO CLOUDS BELOW 12,000 FEET WITH NO
SIGNIFICANT WEATHER AND/OR OBSTRUCTIONS TO VISIBILITY.



NDZ022-023-025-028>030-036>039-047>053-180700-
SOUTHEAST NORTH DAKOTA
  
CITY           SKY/WX    TMP DP  RH WIND       PRES   REMARKS
FARGO          MOCLDY    70  67  90 CALM      29.69R                  
6HR MIN TEMP:  70; 6HR MAX TEMP:  84;                                

JAMESTOWN      LGT RAIN  70  68  93 S8        29.68F                  
$$ 

  

SKY/WX - Weather  TMP - Temperature  DP - Dew Point  RH - Relative Humidity
WIND - Wind Direction/Speed PRES - Barometric Pressure VSB - Visibility
WCI - Wind Chill Index E13G22 Wind - East Wind 13 mph/Gusts of 22 mph